Aérodrome :
LOGIN :

S'inscrire | Disclaimer

   EN    FR    IT 

 










Légende :    VFR   VFR Marginal   IFR   IFR Intensif   IFR Très Intensif
Visi : 
Plafond : 
>= 8 km
>= 3000ft
5 à 8 km
1000 à 3000 ft
1500m à 5 km
500 à 1000 ft
800 à 1500m
200 à 500 ft
< 800m
< 200 ft
Symboles :   Orages  Brouillard  Fortes neiges  Fortes précipitations  Vent > 20 kt
SIGMETs :   Divers  Orages  Givrage  Turbulence  Onde Orograph.  Cendres Volcan.







- Altitude de l'aérodrome : 1682 ft
- Code IATA : VIT


LEVT - Vitoria Gasteiz

DERNIER METAR :
  • 201400Z 06001KT CAVOK 24/M02 Q1019

METARs EXPIRÉS :
  • 201330Z 11001KT CAVOK 24/02 Q1020
  • 201300Z 00000KT CAVOK 22/05 Q1020
  • 201230Z 10001KT CAVOK 20/07 Q1020
  • 201200Z 07001KT CAVOK 19/10 Q1021
  • 201130Z 11001KT CAVOK 17/09 Q1021

TAF TAF LEVT
Valide du 20 à 12h jusqu'au 21 à 12h UTC


201100Z 2012/2112 03008KT CAVOK TX24/2015Z TN05/2105Z
PROB40
TEMPO 2103/2112 15010KT
Pas de NOTAMs connus pour ce terrain.



MET'MAP, la Météo Aéronautique d'un coup d'oeil ! - Copyright ORBIFLY Décembre 2007 - Disclaimer

ORBIFLY MET'MAP TEAM :

Programmation & Développement : Alexandra Zaïnal
Conception & Développement : Baudouin d'Aumeries
Co-Programmation & Développement : Marc-Olivier Méhu
Soutien technique & logistique : Manuel Goepfert

Contact : metmap@orbifly.com




SOURCES & CREDITS :

   NOAA